SCP
0 0 0 0 0 0 0 0 0 0 0 0 0 0 0 0 0 0 0 0 0 0 0 0 0 0 0 -0 0 0 -0 -0 -0 -0 -0 -0 -0 -0 -0 -0 -0 -0 -0 -0 -0 -0 0 -0 -0
0 0 0 0 0 0 0 0 0 0 0 0 0 0 0 0 0 0 0 0 0 0 0 0 0 0 0 0 0 0 -0 -0 -0 -0 -0 -0 -0 -0 -0 -0 -0 -0 -0 -0 -0 -0 0 -0 -0
0 0 0 0 0 0 0 0 0 0 0 0 0 0 0 0 0 0 0 0 0 0 0 0 0 0 0 0 0 0 0 -0 -0 -0 -0 -0 -0 -0 -0 -0 -0 -0 -0 -0 0 0 -0 -0 -0
0 0 0 0 0 0 0 0 0 0 0 0 0 0 0 0 0 0 0 0 0 0 0 0 0 0 0 0 0 0 0 -0 -0 -0 -0 -0 -0 -0 -0 -0 -0 -0 0 0 0 0 0 -0 -0
0 0 0 0 0 0 0 0 0 0 0 0 0 0 0 0 0 0 0 0 0 0 0 0 0 0 0 0 0 0 0 0 -0 -0 -0 -0 -0 -0 -0 -0 0 0 0 0 0 0 -0 -0 -0
0 0 0 0 0 0 -0 0 0 0 0 0 0 0 0 0 0 0 0 0 0 0 0 0 0 0 0 0 0 0 0 0 0 0 0 0 -0 -0 -0 0 0 0 0 0 0 -0 -0 -0 -0
0 0 0 0 0 0 0 -0 0 0 0 0 0 0 0 0 0 0 0 0 0 0 0 0 0 0 0 0 0 0 0 0 0 0 0 0 0 0 0 0 0 0 0 0 0 -0 -0 -0 -0
0 0 0 0 0 0 0 0 0 0 0 0 0 0 0 0 0 0 0 0 0 0 0 0 0 0 0 0 0 0 0 0 0 0 0 0 0 0 0 0 0 0 0 -0 -0 -0 -0 -0 -0
0 0 0 0 0 0 0 0 0 0 0 0 0 0 0 0 0 0 0 0 0 0 0 0 0 0 0 0 0 0 0 0 0 0 0 0 0 0 0 0 0 0 -0 -0 -0 -0 -0 -0 -0
0 0 0 0 0 0 0 0 0 0 0 0 0 0 0 0 0 0 0 0 0 0 0 0 0 0 0 0 0 0 0 0 0 0 0 0 0 0 0 -0 -0 -0 -0 -0 -0 -0 -0 -0 -0
0 0 0 0 0 0 0 0 -0 0 0 0 0 0 0 0 0 0 0 0 0 0 0 0 0 0 0 0 0 0 0 0 0 0 0 0 0 0 0 0 0 0 0 0 -0 -0 0 0 0
0 0 0 0 0 0 0 0 0 0 0 0 0 0 0 0 0 0 0 0 0 0 0 0 0 0 0 0 0 0 0 0 0 0 0 0 0 0 0 0 0 0 0 0 0 0 0 0 0
0 0 0 0 0 0 0 0 0 0 0 0 0 0 0 0 0 0 0 0 0 0 0 0 0 0 0 0 0 0 0 0 0 0 0 0 0 0 0 0 0 0 0 0 0 0 0 0 0
0 0 0 0 0 0 0 0 0 0 0 0 0 0 0 0 0 0 0 0 0 0 0 0 0 0 0 0 0 0 0 0 0 0 0 0 0 0 0 0 0 0 0 0 0 0 0 0 0
0 0 0 -0 0 0 0 0 0 0 0 0 0 0 0 0 0 0 0 0 0 0 0 0 0 0 0 0 0 0 0 0 0 0 0 0 0 0 0 0 0 0 0 0 0 0 0 0 0
0 0 0 -0 0 0 0 0 0 0 0 0 0 0 0 0 0 0 0 0 0 0 0 0 0 0 0 0 0 0 0 0 0 0 0 0 0 0 0 0 0 0 0 0 0 0 0 0 0
0 0 0 -0 0 0 0 0 0 0 0 0 0 0 0 0 0 0 0 0 0 0 0 0 0 0 0 0 0 0 0 0 0 0 0 0 0 0 0 0 0 0 0 0 0 0 0 0 0
0 -0 0 0 0 0 0 0 0 0 0 0 0 0 0 0 0 0 0 0 0 0 0 0 0 0 0 0 0 0 0 0 0 0 0 0 0 0 0 0 0 0 0 0 0 0 0 0 0
-0 -0 0 0 0 0 0 0 0 0 0 0 0 0 0 0 0 0 0 0 0 0 0 0 0 0 0 0 0 0 0 0 0 0 0 0 0 0 0 0 0 0 0 0 0 0 0 0 0
0 0 0 0 0 0 0 0 0 0 0 0 0 0 0 0 0 0 0 0 0 0 0 0 0 0 0 0 0 0 0 0 0 0 0 0 0 0 0 0 0 0 0 0 0 0 0 0 0
-0 0 0 0 0 0 0 0 0 0 0 0 0 0 0 0 0 0 0 0 0 0 0 0 0 0 0 0 0 0 0 0 0 0 0 0 0 0 0 0 0 0 0 0 0 0 0 0 0
-0 -0 0 0 0 0 0 0 0 0 0 0 0 0 0 0 0 0 0 0 0 0 0 0 0 0 0 0 0 0 0 0 0 0 0 0 0 0 0 0 0 0 0 0 0 0 0 0 0
0 -0 0 0 0 0 0 0 0 0 0 0 0 0 0 0 0 0 0 0 0 0 0 0 0 0 0 0 0 0 0 0 0 0 0 0 0 0 0 0 0 0 0 0 0 0 0 0 0
0 0 0 0 0 0 0 0 0 0 0 0 0 0 0 0 0 0 0 0 0 0 0 0 0 0 0 0 0 0 0 0 0 0 0 0 0 0 0 0 0 0 0 0 0 0 0 0 0
0 0 0 0 0 0 0 0 0 0 0 0 0 0 0 0 0 0 0 0 0 0 0 0 0 0 0 0 0 0 0 0 0 0 0 0 0 0 0 0 0 0 0 0 0 0 0 0 0
0 0 0 0 0 0 0 0 0 0 0 0 0 0 0 0 0 0 0 0 0 0 0 0 0 0 0 0 0 0 0 0 0 0 0 0 0 0 0 0 0 0 0 0 0 0 0 0 0
0 0 0 0 0 0 0 0 0 0 0 0 0 0 0 0 0 0 0 0 0 0 0 0 0 0 0 0 0 0 0 0 0 0 0 0 0 0 0 0 0 0 0 0 0 0 0 0 0
0 0 0 0 0 0 0 0 0 0 0 0 0 0 0 0 0 0 0 0 0 0 0 0 0 0 0 0 0 0 0 0 0 0 0 0 0 0 0 0 0 0 0 0 0 0 0 0 0
0 0 0 0 0 0 0 0 0 0 0 0 0 0 0 0 0 0 0 0 0 0 0 0 0 0 0 0 0 0 0 0 0 0 0 0 0 0 0 0 0 0 0 0 0 0 0 0 0
0 0 0 0 0 0 0 0 0 0 0 0 0 0 0 0 0 0 0 0 0 0 0 0 0 0 0 0 0 0 0 0 0 0 0 0 0 0 0 0 0 0 0 0 0 0 0 0 0
Wind_Speed_500mb
10 11 8 4 4 7 7 13 6 12 6 5 2 10 18 16 10 8 21 43 52 54 59 60 55 47 40 41 42 34 31 27 25 23 21 19 17 17 17 16 16 20 17 19 22 23 21 19 17
13 10 5 1 6 3 11 8 13 17 17 21 21 15 8 5 11 17 46 41 56 53 58 60 57 49 45 45 39 34 29 24 21 18 17 18 18 19 20 18 17 17 16 16 17 18 17 16 14
14 10 8 6 7 15 10 13 17 13 11 22 9 5 5 12 15 43 26 49 55 53 53 55 51 48 49 46 41 36 28 22 17 16 18 20 19 19 19 18 17 16 14 14 13 13 12 11 10
11 11 4 8 22 12 16 9 6 11 2 12 14 12 7 10 23 34 46 52 54 52 51 52 52 49 51 48 43 36 28 21 18 18 20 19 19 19 18 17 16 14 13 11 10 9 8 7 7
21 8 5 8 19 11 12 30 22 11 7 11 24 12 9 18 24 33 46 53 56 54 53 53 53 52 51 48 42 36 28 22 20 19 18 17 21 19 19 17 15 12 9 8 6 5 5 5 5
14 9 6 20 25 9 12 42 19 14 25 20 15 21 15 25 24 36 43 51 53 55 55 54 55 53 49 46 41 35 28 24 22 20 17 15 19 18 17 15 12 7 6 4 2 2 3 4 5
8 8 16 11 31 17 21 20 12 25 13 19 29 11 12 32 28 37 44 48 51 55 56 55 56 52 47 42 39 33 28 25 22 20 18 17 17 16 15 12 8 5 3 1 2 3 3 4 6
9 6 10 15 30 27 12 20 39 24 25 17 38 17 14 48 43 45 50 47 54 57 56 57 55 52 49 44 39 32 27 24 22 20 19 19 17 14 12 10 7 4 2 3 4 4 4 5 7
10 9 29 41 36 15 14 10 18 21 20 21 33 16 20 54 53 61 58 55 60 61 61 61 57 54 51 46 41 32 27 23 22 22 21 19 18 15 13 11 9 5 4 5 5 6 7 7 7
15 16 31 9 11 13 13 5 9 5 17 11 24 26 30 59 67 73 71 72 71 73 70 65 61 57 53 48 42 35 29 25 23 23 22 19 17 17 14 12 10 7 6 8 8 8 8 7 8
10 25 16 22 36 33 11 14 10 7 10 26 46 47 57 68 77 75 72 71 74 74 71 67 63 57 53 47 40 35 31 28 23 23 21 20 20 19 18 14 11 10 11 9 9 9 9 10 11
12 25 33 36 27 18 7 15 7 29 38 38 55 64 71 76 81 81 76 74 72 73 69 67 65 61 55 48 43 37 34 30 26 21 23 22 20 18 16 15 15 13 11 11 12 11 12 12 14
15 10 21 42 36 30 11 18 13 23 32 20 45 62 72 77 80 80 75 70 65 68 66 64 65 63 56 53 47 42 37 34 28 26 24 22 20 17 16 15 17 14 15 14 15 15 15 16 18
10 23 23 31 37 30 2 7 10 28 34 36 56 68 74 78 80 79 76 71 64 62 60 56 64 61 55 53 49 44 39 35 32 29 24 22 19 17 18 18 18 17 18 19 20 19 19 20 22
36 17 12 24 26 17 11 7 10 21 33 47 61 68 70 74 75 76 72 70 61 57 51 49 55 59 54 48 46 41 35 32 28 28 25 22 20 19 21 22 22 21 24 24 25 23 24 25 26
14 8 21 24 23 15 7 15 3 34 21 47 58 63 65 67 71 72 68 66 61 54 53 45 48 50 49 45 41 40 34 30 27 27 26 24 21 21 25 28 28 27 29 30 30 28 30 31 31
17 17 24 22 43 14 11 7 18 53 18 24 45 55 61 58 65 68 67 64 63 56 48 48 46 48 45 41 43 40 38 37 31 29 28 26 25 26 30 30 29 29 32 33 34 33 33 32 30
6 20 29 22 11 13 10 14 27 55 38 24 34 39 45 50 63 63 65 61 61 57 52 45 43 42 41 40 41 47 46 44 42 36 33 30 30 32 35 34 31 31 33 33 34 35 33 34 36
13 26 15 10 6 5 15 25 13 41 41 16 5 29 37 40 38 47 60 60 59 59 57 54 47 40 42 43 45 49 52 47 48 43 37 35 37 36 39 39 34 32 34 33 33 36 37 35 41
17 23 11 15 13 6 13 12 7 17 21 35 33 10 14 24 26 24 38 51 63 50 52 60 54 43 41 41 41 43 40 40 38 36 36 34 33 35 36 37 38 36 38 40 38 36 38 39 42
9 9 5 10 12 25 13 7 13 14 33 38 39 24 22 5 7 11 24 33 61 60 44 47 52 46 42 40 39 40 39 41 40 36 38 37 37 37 40 38 38 38 40 42 41 40 41 44 44
10 21 7 18 6 7 9 5 5 14 30 19 39 44 39 25 9 6 3 16 48 58 43 47 51 51 51 49 48 48 44 40 32 35 35 33 32 32 35 38 40 40 42 43 42 40 42 45 45
5 16 10 4 12 10 10 8 5 6 13 23 34 38 34 32 24 8 11 6 5 21 32 36 39 45 46 44 45 46 48 40 34 38 39 40 40 40 38 39 40 41 35 34 36 40 41 40 41
13 9 10 6 3 7 4 5 3 2 2 18 32 38 34 34 27 18 5 3 6 6 10 22 26 26 30 29 34 38 49 48 52 46 40 43 41 38 36 38 38 40 41 38 40 42 38 35 34
13 13 6 7 9 4 5 6 1 4 9 13 18 27 30 28 25 22 21 13 5 9 8 11 18 24 34 36 40 43 43 45 41 43 43 44 44 43 44 46 47 47 46 44 40 36 38 34 33
5 6 5 3 2 3 8 5 4 11 12 8 20 21 28 30 28 29 28 25 20 15 7 10 18 24 26 26 25 27 30 33 36 36 36 35 37 38 38 35 33 31 30 31 34 30 24 27 27
8 6 6 8 4 7 6 4 5 9 6 8 18 27 34 32 29 31 28 27 25 21 16 11 6 8 12 17 20 22 22 23 24 25 25 26 24 22 20 20 21 20 20 20 18 13 14 18 22
1 3 6 6 5 6 7 6 3 2 7 10 16 25 28 27 28 28 25 23 21 20 20 18 14 9 4 5 8 10 12 12 11 11 10 12 12 12 12 11 12 14 13 12 10 11 13 17 19
10 6 8 7 6 4 6 4 6 4 7 9 16 24 30 32 33 32 28 22 18 16 16 16 15 13 9 4 4 4 5 6 7 9 8 9 8 9 9 9 10 12 12 14 14 17 17 19 20
4 3 4 7 7 4 5 1 8 8 6 10 22 31 33 34 33 33 32 28 25 22 20 18 16 14 13 12 13 11 11 12 10 9 9 8 7 7 8 9 9 11 12 12 13 15 16 16 15
Wind_Direction_500mb
275 300 277 295 51 64 252 245 261 284 279 248 197 144 165 138 166 201 155 168 170 173 173 174 179 183 174 167 168 169 169 176 179 185 192 193 188 176 165 154 139 145 121 109 105 109 113 107 99
253 275 250 147 113 190 259 242 238 237 234 124 101 90 106 147 159 152 150 163 172 174 174 179 181 182 173 170 171 171 172 176 181 187 185 175 166 157 151 144 137 132 127 115 109 105 102 99 94
242 237 172 142 186 211 229 212 221 254 249 173 122 85 138 162 158 155 164 162 172 175 177 178 178 179 173 172 172 173 178 182 184 180 173 163 158 153 149 145 141 138 128 118 111 103 97 92 84
228 176 169 143 238 254 217 236 264 325 144 186 172 102 141 177 170 164 165 166 171 175 177 174 176 178 173 177 180 184 190 194 186 177 171 165 162 158 156 153 147 139 131 120 109 99 87 74 64
213 178 184 225 243 241 253 255 272 266 277 198 165 175 153 163 161 168 165 170 178 175 175 173 175 173 175 178 182 189 197 195 187 179 171 172 179 169 163 160 151 143 137 127 117 99 76 60 50
218 178 181 217 241 225 246 261 261 243 236 181 144 144 153 171 180 171 169 171 183 178 173 173 175 176 177 183 189 193 192 192 188 183 178 175 173 170 159 159 155 150 147 142 142 73 44 36 29
220 163 216 186 234 254 243 256 222 234 222 194 160 129 171 179 185 177 172 173 182 183 175 175 177 179 182 189 192 192 192 193 191 186 189 187 172 176 171 170 173 179 183 226 331 355 16 16 5
254 182 196 211 220 251 212 219 254 226 213 197 176 167 191 186 184 176 172 175 180 184 181 179 180 187 189 191 194 196 196 196 198 194 195 196 198 198 192 193 203 214 244 289 313 334 342 335 335
262 239 228 221 205 213 178 193 257 240 177 183 187 188 204 179 173 174 172 175 181 187 189 185 185 187 190 194 196 199 200 203 206 205 202 200 201 203 208 212 216 225 250 273 292 305 306 311 325
198 231 240 254 244 215 214 220 267 220 169 204 182 183 184 179 176 178 179 178 186 188 192 192 192 191 194 199 201 203 204 207 209 209 209 208 206 207 207 211 210 222 253 275 278 287 289 305 314
226 239 277 282 247 253 253 257 256 191 258 201 193 180 177 178 181 185 186 190 187 192 196 195 197 197 199 201 204 206 208 209 210 212 209 210 214 220 222 229 230 254 271 274 280 290 293 302 302
275 244 259 275 293 256 224 247 220 214 232 232 206 193 180 184 189 192 193 194 192 194 198 198 199 201 203 206 210 215 215 213 212 210 212 218 224 230 235 245 252 268 277 273 286 293 294 296 300
240 238 254 260 283 296 273 270 237 237 234 231 195 180 185 191 194 197 198 196 200 196 197 202 202 205 207 209 213 218 217 218 220 221 221 225 231 237 248 255 261 271 274 278 282 286 288 291 298
299 231 245 257 304 300 298 249 321 252 215 190 183 186 189 195 195 197 201 200 202 203 202 206 209 208 212 216 218 220 219 218 222 223 222 227 236 246 257 263 271 274 278 275 277 280 281 284 293
242 290 247 217 260 255 310 304 240 302 197 181 184 187 192 197 200 205 206 207 203 206 208 208 207 212 215 219 223 219 214 213 218 219 221 228 237 249 261 267 271 275 273 272 277 281 282 284 291
199 219 244 220 233 259 221 214 346 5 218 178 187 191 196 200 207 209 212 212 209 209 210 213 211 214 218 220 218 218 216 222 227 222 227 238 246 256 264 270 273 273 271 273 276 280 280 282 287
203 215 227 197 193 231 231 130 295 11 259 186 192 194 199 204 209 213 213 217 214 216 216 218 219 221 222 224 226 228 231 235 236 237 240 246 256 265 269 271 272 271 271 270 273 274 276 282 289
213 224 212 176 149 190 173 126 292 356 331 230 193 202 202 210 216 215 215 215 216 222 225 227 229 226 225 232 239 235 234 240 242 243 246 253 259 265 268 268 268 268 269 269 270 272 272 279 284
272 251 142 71 62 113 176 137 357 356 11 40 128 223 213 224 233 224 221 216 214 219 228 230 229 227 224 227 229 228 234 239 242 246 253 256 261 262 261 261 261 261 267 273 273 272 273 274 276
269 121 105 77 79 80 147 182 351 358 337 35 29 20 224 243 244 237 227 222 216 219 228 228 230 231 230 231 234 236 241 245 249 253 259 267 262 259 263 264 268 269 270 271 273 274 278 272 274
3 22 76 110 90 47 81 64 15 320 343 37 44 38 62 45 238 236 225 220 212 222 238 225 228 233 233 241 240 238 239 243 246 251 253 255 263 265 267 268 268 269 269 272 275 274 274 276 279
20 339 90 117 52 125 0 134 48 355 323 351 21 23 40 41 79 68 303 232 214 223 228 223 227 230 232 233 236 236 240 245 254 253 261 267 261 261 263 265 266 269 270 271 274 277 276 277 279
5 322 20 121 100 122 16 87 344 27 306 349 349 8 32 41 35 48 62 50 201 219 233 232 235 242 243 249 249 245 245 251 254 262 263 265 264 267 265 264 266 267 268 272 271 271 275 277 280
322 336 46 44 76 65 77 106 312 109 292 320 327 354 29 40 45 58 67 299 336 289 242 237 256 257 266 253 257 268 259 258 259 258 262 262 263 262 261 263 262 266 271 270 264 266 269 275 270
30 23 15 10 31 120 85 63 334 294 296 282 290 349 16 35 41 49 63 80 200 233 229 235 237 242 245 252 252 248 247 236 243 253 256 261 263 262 262 262 264 268 267 266 269 269 271 265 268
351 93 124 199 39 66 354 73 88 188 200 312 342 15 30 33 31 30 34 33 34 31 356 271 251 247 248 247 246 244 245 249 252 254 256 258 261 264 266 267 268 269 270 272 271 265 257 260 265
317 50 172 104 25 60 343 33 42 293 275 12 29 43 31 26 29 20 24 27 23 19 12 9 349 286 268 260 255 254 257 258 257 260 262 261 258 257 255 257 260 261 266 265 262 263 256 257 261
43 231 41 20 55 67 16 24 130 58 40 25 26 42 44 38 37 31 28 22 12 8 4 2 357 348 329 282 271 266 263 258 255 245 237 241 243 249 255 258 264 272 276 272 265 258 254 257 269
350 22 56 114 111 132 124 328 225 106 22 35 37 49 50 43 36 29 27 22 15 4 355 351 350 339 328 295 217 219 233 228 227 233 230 238 248 259 262 265 273 282 293 293 287 278 278 276 270
262 88 96 102 335 36 80 298 87 44 347 41 48 54 58 53 45 39 37 32 22 10 360 352 342 329 319 314 303 269 221 207 216 223 221 229 242 255 267 274 279 291 289 286 287 280 274 269 270
Wind_Speed_850mb
10 11 8 4 4 7 7 13 6 12 6 5 2 10 18 16 10 8 21 43 52 54 59 60 55 47 40 41 42 34 31 27 25 23 21 19 17 17 17 16 16 20 17 19 22 23 21 19 17
13 10 5 1 6 3 11 8 13 17 17 21 21 15 8 5 11 17 46 41 56 53 58 60 57 49 45 45 39 34 29 24 21 18 17 18 18 19 20 18 17 17 16 16 17 18 17 16 14
14 10 8 6 7 15 10 13 17 13 11 22 9 5 5 12 15 43 26 49 55 53 53 55 51 48 49 46 41 36 28 22 17 16 18 20 19 19 19 18 17 16 14 14 13 13 12 11 10
11 11 4 8 22 12 16 9 6 11 2 12 14 12 7 10 23 34 46 52 54 52 51 52 52 49 51 48 43 36 28 21 18 18 20 19 19 19 18 17 16 14 13 11 10 9 8 7 7
21 8 5 8 19 11 12 30 22 11 7 11 24 12 9 18 24 33 46 53 56 54 53 53 53 52 51 48 42 36 28 22 20 19 18 17 21 19 19 17 15 12 9 8 6 5 5 5 5
14 9 6 20 25 9 12 42 19 14 25 20 15 21 15 25 24 36 43 51 53 55 55 54 55 53 49 46 41 35 28 24 22 20 17 15 19 18 17 15 12 7 6 4 2 2 3 4 5
8 8 16 11 31 17 21 20 12 25 13 19 29 11 12 32 28 37 44 48 51 55 56 55 56 52 47 42 39 33 28 25 22 20 18 17 17 16 15 12 8 5 3 1 2 3 3 4 6
9 6 10 15 30 27 12 20 39 24 25 17 38 17 14 48 43 45 50 47 54 57 56 57 55 52 49 44 39 32 27 24 22 20 19 19 17 14 12 10 7 4 2 3 4 4 4 5 7
10 9 29 41 36 15 14 10 18 21 20 21 33 16 20 54 53 61 58 55 60 61 61 61 57 54 51 46 41 32 27 23 22 22 21 19 18 15 13 11 9 5 4 5 5 6 7 7 7
15 16 31 9 11 13 13 5 9 5 17 11 24 26 30 59 67 73 71 72 71 73 70 65 61 57 53 48 42 35 29 25 23 23 22 19 17 17 14 12 10 7 6 8 8 8 8 7 8
10 25 16 22 36 33 11 14 10 7 10 26 46 47 57 68 77 75 72 71 74 74 71 67 63 57 53 47 40 35 31 28 23 23 21 20 20 19 18 14 11 10 11 9 9 9 9 10 11
12 25 33 36 27 18 7 15 7 29 38 38 55 64 71 76 81 81 76 74 72 73 69 67 65 61 55 48 43 37 34 30 26 21 23 22 20 18 16 15 15 13 11 11 12 11 12 12 14
15 10 21 42 36 30 11 18 13 23 32 20 45 62 72 77 80 80 75 70 65 68 66 64 65 63 56 53 47 42 37 34 28 26 24 22 20 17 16 15 17 14 15 14 15 15 15 16 18
10 23 23 31 37 30 2 7 10 28 34 36 56 68 74 78 80 79 76 71 64 62 60 56 64 61 55 53 49 44 39 35 32 29 24 22 19 17 18 18 18 17 18 19 20 19 19 20 22
36 17 12 24 26 17 11 7 10 21 33 47 61 68 70 74 75 76 72 70 61 57 51 49 55 59 54 48 46 41 35 32 28 28 25 22 20 19 21 22 22 21 24 24 25 23 24 25 26
14 8 21 24 23 15 7 15 3 34 21 47 58 63 65 67 71 72 68 66 61 54 53 45 48 50 49 45 41 40 34 30 27 27 26 24 21 21 25 28 28 27 29 30 30 28 30 31 31
17 17 24 22 43 14 11 7 18 53 18 24 45 55 61 58 65 68 67 64 63 56 48 48 46 48 45 41 43 40 38 37 31 29 28 26 25 26 30 30 29 29 32 33 34 33 33 32 30
6 20 29 22 11 13 10 14 27 55 38 24 34 39 45 50 63 63 65 61 61 57 52 45 43 42 41 40 41 47 46 44 42 36 33 30 30 32 35 34 31 31 33 33 34 35 33 34 36
13 26 15 10 6 5 15 25 13 41 41 16 5 29 37 40 38 47 60 60 59 59 57 54 47 40 42 43 45 49 52 47 48 43 37 35 37 36 39 39 34 32 34 33 33 36 37 35 41
17 23 11 15 13 6 13 12 7 17 21 35 33 10 14 24 26 24 38 51 63 50 52 60 54 43 41 41 41 43 40 40 38 36 36 34 33 35 36 37 38 36 38 40 38 36 38 39 42
9 9 5 10 12 25 13 7 13 14 33 38 39 24 22 5 7 11 24 33 61 60 44 47 52 46 42 40 39 40 39 41 40 36 38 37 37 37 40 38 38 38 40 42 41 40 41 44 44
10 21 7 18 6 7 9 5 5 14 30 19 39 44 39 25 9 6 3 16 48 58 43 47 51 51 51 49 48 48 44 40 32 35 35 33 32 32 35 38 40 40 42 43 42 40 42 45 45
5 16 10 4 12 10 10 8 5 6 13 23 34 38 34 32 24 8 11 6 5 21 32 36 39 45 46 44 45 46 48 40 34 38 39 40 40 40 38 39 40 41 35 34 36 40 41 40 41
13 9 10 6 3 7 4 5 3 2 2 18 32 38 34 34 27 18 5 3 6 6 10 22 26 26 30 29 34 38 49 48 52 46 40 43 41 38 36 38 38 40 41 38 40 42 38 35 34
13 13 6 7 9 4 5 6 1 4 9 13 18 27 30 28 25 22 21 13 5 9 8 11 18 24 34 36 40 43 43 45 41 43 43 44 44 43 44 46 47 47 46 44 40 36 38 34 33
5 6 5 3 2 3 8 5 4 11 12 8 20 21 28 30 28 29 28 25 20 15 7 10 18 24 26 26 25 27 30 33 36 36 36 35 37 38 38 35 33 31 30 31 34 30 24 27 27
8 6 6 8 4 7 6 4 5 9 6 8 18 27 34 32 29 31 28 27 25 21 16 11 6 8 12 17 20 22 22 23 24 25 25 26 24 22 20 20 21 20 20 20 18 13 14 18 22
1 3 6 6 5 6 7 6 3 2 7 10 16 25 28 27 28 28 25 23 21 20 20 18 14 9 4 5 8 10 12 12 11 11 10 12 12 12 12 11 12 14 13 12 10 11 13 17 19
10 6 8 7 6 4 6 4 6 4 7 9 16 24 30 32 33 32 28 22 18 16 16 16 15 13 9 4 4 4 5 6 7 9 8 9 8 9 9 9 10 12 12 14 14 17 17 19 20
4 3 4 7 7 4 5 1 8 8 6 10 22 31 33 34 33 33 32 28 25 22 20 18 16 14 13 12 13 11 11 12 10 9 9 8 7 7 8 9 9 11 12 12 13 15 16 16 15
Wind_Direction_850mb
275 300 277 295 51 64 252 245 261 284 279 248 197 144 165 138 166 201 155 168 170 173 173 174 179 183 174 167 168 169 169 176 179 185 192 193 188 176 165 154 139 145 121 109 105 109 113 107 99
253 275 250 147 113 190 259 242 238 237 234 124 101 90 106 147 159 152 150 163 172 174 174 179 181 182 173 170 171 171 172 176 181 187 185 175 166 157 151 144 137 132 127 115 109 105 102 99 94
242 237 172 142 186 211 229 212 221 254 249 173 122 85 138 162 158 155 164 162 172 175 177 178 178 179 173 172 172 173 178 182 184 180 173 163 158 153 149 145 141 138 128 118 111 103 97 92 84
228 176 169 143 238 254 217 236 264 325 144 186 172 102 141 177 170 164 165 166 171 175 177 174 176 178 173 177 180 184 190 194 186 177 171 165 162 158 156 153 147 139 131 120 109 99 87 74 64
213 178 184 225 243 241 253 255 272 266 277 198 165 175 153 163 161 168 165 170 178 175 175 173 175 173 175 178 182 189 197 195 187 179 171 172 179 169 163 160 151 143 137 127 117 99 76 60 50
218 178 181 217 241 225 246 261 261 243 236 181 144 144 153 171 180 171 169 171 183 178 173 173 175 176 177 183 189 193 192 192 188 183 178 175 173 170 159 159 155 150 147 142 142 73 44 36 29
220 163 216 186 234 254 243 256 222 234 222 194 160 129 171 179 185 177 172 173 182 183 175 175 177 179 182 189 192 192 192 193 191 186 189 187 172 176 171 170 173 179 183 226 331 355 16 16 5
254 182 196 211 220 251 212 219 254 226 213 197 176 167 191 186 184 176 172 175 180 184 181 179 180 187 189 191 194 196 196 196 198 194 195 196 198 198 192 193 203 214 244 289 313 334 342 335 335
262 239 228 221 205 213 178 193 257 240 177 183 187 188 204 179 173 174 172 175 181 187 189 185 185 187 190 194 196 199 200 203 206 205 202 200 201 203 208 212 216 225 250 273 292 305 306 311 325
198 231 240 254 244 215 214 220 267 220 169 204 182 183 184 179 176 178 179 178 186 188 192 192 192 191 194 199 201 203 204 207 209 209 209 208 206 207 207 211 210 222 253 275 278 287 289 305 314
226 239 277 282 247 253 253 257 256 191 258 201 193 180 177 178 181 185 186 190 187 192 196 195 197 197 199 201 204 206 208 209 210 212 209 210 214 220 222 229 230 254 271 274 280 290 293 302 302
275 244 259 275 293 256 224 247 220 214 232 232 206 193 180 184 189 192 193 194 192 194 198 198 199 201 203 206 210 215 215 213 212 210 212 218 224 230 235 245 252 268 277 273 286 293 294 296 300
240 238 254 260 283 296 273 270 237 237 234 231 195 180 185 191 194 197 198 196 200 196 197 202 202 205 207 209 213 218 217 218 220 221 221 225 231 237 248 255 261 271 274 278 282 286 288 291 298
299 231 245 257 304 300 298 249 321 252 215 190 183 186 189 195 195 197 201 200 202 203 202 206 209 208 212 216 218 220 219 218 222 223 222 227 236 246 257 263 271 274 278 275 277 280 281 284 293
242 290 247 217 260 255 310 304 240 302 197 181 184 187 192 197 200 205 206 207 203 206 208 208 207 212 215 219 223 219 214 213 218 219 221 228 237 249 261 267 271 275 273 272 277 281 282 284 291
199 219 244 220 233 259 221 214 346 5 218 178 187 191 196 200 207 209 212 212 209 209 210 213 211 214 218 220 218 218 216 222 227 222 227 238 246 256 264 270 273 273 271 273 276 280 280 282 287
203 215 227 197 193 231 231 130 295 11 259 186 192 194 199 204 209 213 213 217 214 216 216 218 219 221 222 224 226 228 231 235 236 237 240 246 256 265 269 271 272 271 271 270 273 274 276 282 289
213 224 212 176 149 190 173 126 292 356 331 230 193 202 202 210 216 215 215 215 216 222 225 227 229 226 225 232 239 235 234 240 242 243 246 253 259 265 268 268 268 268 269 269 270 272 272 279 284
272 251 142 71 62 113 176 137 357 356 11 40 128 223 213 224 233 224 221 216 214 219 228 230 229 227 224 227 229 228 234 239 242 246 253 256 261 262 261 261 261 261 267 273 273 272 273 274 276
269 121 105 77 79 80 147 182 351 358 337 35 29 20 224 243 244 237 227 222 216 219 228 228 230 231 230 231 234 236 241 245 249 253 259 267 262 259 263 264 268 269 270 271 273 274 278 272 274
3 22 76 110 90 47 81 64 15 320 343 37 44 38 62 45 238 236 225 220 212 222 238 225 228 233 233 241 240 238 239 243 246 251 253 255 263 265 267 268 268 269 269 272 275 274 274 276 279
20 339 90 117 52 125 0 134 48 355 323 351 21 23 40 41 79 68 303 232 214 223 228 223 227 230 232 233 236 236 240 245 254 253 261 267 261 261 263 265 266 269 270 271 274 277 276 277 279
5 322 20 121 100 122 16 87 344 27 306 349 349 8 32 41 35 48 62 50 201 219 233 232 235 242 243 249 249 245 245 251 254 262 263 265 264 267 265 264 266 267 268 272 271 271 275 277 280
322 336 46 44 76 65 77 106 312 109 292 320 327 354 29 40 45 58 67 299 336 289 242 237 256 257 266 253 257 268 259 258 259 258 262 262 263 262 261 263 262 266 271 270 264 266 269 275 270
30 23 15 10 31 120 85 63 334 294 296 282 290 349 16 35 41 49 63 80 200 233 229 235 237 242 245 252 252 248 247 236 243 253 256 261 263 262 262 262 264 268 267 266 269 269 271 265 268
351 93 124 199 39 66 354 73 88 188 200 312 342 15 30 33 31 30 34 33 34 31 356 271 251 247 248 247 246 244 245 249 252 254 256 258 261 264 266 267 268 269 270 272 271 265 257 260 265
317 50 172 104 25 60 343 33 42 293 275 12 29 43 31 26 29 20 24 27 23 19 12 9 349 286 268 260 255 254 257 258 257 260 262 261 258 257 255 257 260 261 266 265 262 263 256 257 261
43 231 41 20 55 67 16 24 130 58 40 25 26 42 44 38 37 31 28 22 12 8 4 2 357 348 329 282 271 266 263 258 255 245 237 241 243 249 255 258 264 272 276 272 265 258 254 257 269
350 22 56 114 111 132 124 328 225 106 22 35 37 49 50 43 36 29 27 22 15 4 355 351 350 339 328 295 217 219 233 228 227 233 230 238 248 259 262 265 273 282 293 293 287 278 278 276 270
262 88 96 102 335 36 80 298 87 44 347 41 48 54 58 53 45 39 37 32 22 10 360 352 342 329 319 314 303 269 221 207 216 223 221 229 242 255 267 274 279 291 289 286 287 280 274 269 270